Location: Fontevrault
(47.1823°N, 0.0493°E)
Time: 09:38:59
(UTC+00:00)

Uosat 12 SS-18 rocket - Pass Details

Date: 16 June 2021
Orbit: 587 x 1397 km, 64.6° (Epoch: 01 August)

Event Time Altitude Azimuth Distance (km) Brightness Sun altitude
Exits shadow 23:10:46 23° 223° (SW) 1,342 5.5 -18.5°
Maximum altitude 23:13:31 80° 308° (NW) 675 4.2 -18.6°
Drops below altitude 10° 23:18:36 10° 37° (NE) 2,276 7.5 -18.8°
Sets 23:21:14 0° 38° (NE) 3,326 8.4 -18.9°
